McMinnville, OR

12:20 PM PDT on October 18, 2019 (GMT -0700)
McMinnville Municipal

Weather History for KMMV - August, 2019

Change the Weather History Date:

Friday, August 23, 2019

  Actual Average Record
Temperature  
Mean Temperature 67 °F 66 °F  
Max Temperature 86 °F 82 °F 103 °F (1988)
Min Temperature 48 °F 50 °F 37 °F (1951)
Degree Days  
Heating Degree Days 0 1  
Month to date heating degree days 7 23  
Since 1 June heating degree days 116  
Since 1 July heating degree days 18 67  
Cooling Degree Days 2 2  
Month to date cooling degree days 85 65  
Year to date cooling degree days 201 165  
Since 1 June cooling degree days 198  
Growing Degree Days 16 (Base 50)    
Moisture  
Dew Point 52 °F    
Average Humidity 64    
Maximum Humidity 93    
Minimum Humidity 34    
Precipitation  
Precipitation 0.00 in 0.02 in 1.20 in (1968)
Month to date precipitation 0.01 0.37  
Year to date precipitation 17.16 22.12  
Sea Level Pressure  
Sea Level Pressure 29.92 in    
Wind  
Wind Speed 3 mph (WSW)    
Max Wind Speed 10 mph    
Max Gust Speed 13 mph    
Visibility 9 miles    
Events Fog    
T = Trace of Precipitation, MM = Missing Value Source: NWS Daily Summary

Daily Weather History Graph

Daily Weather History Graph

Search for Another Location

Airport or City:

Astronomy

Aug. 23, 2019 Rise Set
Actual Time 6:23 AM PDT 8:06 PM PDT
Civil Twilight 5:52 AM PDT 8:37 PM PDT
Nautical Twilight 5:14 AM PDT 9:15 PM PDT
Astronomical Twilight 4:32 AM PDT 9:56 PM PDT
Moon No Moon Rise 2:27 PM PDT (8/23)
Length of Visible Light 14h 45m
Length of Day
13h 42m
Waning Gibbous, 48% of the Moon is Illuminated
Aug 23
Waning Gibbous
Aug 30
New
Sep 5
First Quarter
Sep 13
Full
Sep 21
Last Quarter

Hourly Weather History & Observations

Time (PDT) Temp. Heat Index Dew Point Humidity Pressure Visibility Wind Dir Wind Speed Gust Speed Precip Events Conditions
12:53 AM 59.0 °F - 52.0 °F 78% 29.99 in 10.0 mi NNW 6.9 mph - N/A   Clear
1:53 AM 57.0 °F - 52.0 °F 83% 29.98 in 10.0 mi NNW 5.8 mph - N/A   Clear
2:53 AM 52.0 °F - 48.9 °F 89% 29.97 in 10.0 mi Calm Calm - N/A   Clear
3:53 AM 54.0 °F - 51.1 °F 90% 29.97 in 10.0 mi Calm Calm - N/A   Clear
4:53 AM 51.1 °F - 48.9 °F 92% 29.96 in 10.0 mi West 3.5 mph - N/A   Clear
6:24 AM 48.9 °F - 48.0 °F 97% 29.97 in 0.8 mi Calm Calm - N/A   Clear
6:33 AM 48.9 °F - 48.0 °F 97% 29.97 in 0.2 mi Calm Calm - N/A Fog Fog
6:53 AM 50.0 °F - 46.9 °F 89% 29.97 in 10.0 mi Calm Calm - N/A   Clear
7:53 AM 55.0 °F - 52.0 °F 89% 29.98 in 10.0 mi Calm Calm - N/A   Clear
8:53 AM 60.1 °F - 53.1 °F 78% 29.97 in 10.0 mi Calm Calm - N/A   Clear
9:53 AM 64.0 °F - 54.0 °F 70% 29.96 in 10.0 mi SW 3.5 mph - N/A   Clear
10:53 AM 68.0 °F - 54.0 °F 61% 29.94 in 10.0 mi Variable 4.6 mph - N/A   Clear
11:53 AM 73.0 °F - 54.0 °F 51% 29.92 in 10.0 mi NE 5.8 mph - N/A   Clear
12:53 PM 75.9 °F - 53.1 °F 45% 29.91 in 10.0 mi Variable 3.5 mph - N/A   Clear
1:53 PM 80.1 °F 79.9 °F 53.1 °F 39% 29.90 in 10.0 mi Variable 3.5 mph - N/A   Clear
2:53 PM 81.0 °F - 52.0 °F 36% 29.87 in 10.0 mi Calm Calm - N/A   Clear
3:53 PM 84.0 °F 82.5 °F 53.1 °F 34% 29.86 in 10.0 mi Variable 3.5 mph - N/A   Clear
4:53 PM 82.9 °F 81.8 °F 53.1 °F 36% 29.85 in 10.0 mi Calm Calm - N/A   Clear
5:53 PM 84.0 °F 82.6 °F 54.0 °F 35% 29.84 in 10.0 mi ENE 4.6 mph - N/A   Clear
6:53 PM 81.0 °F 80.7 °F 55.0 °F 41% 29.83 in 10.0 mi SW 8.1 mph - N/A   Clear
7:53 PM 73.0 °F - 55.0 °F 53% 29.84 in 10.0 mi SW 11.5 mph - N/A   Clear
8:53 PM 68.0 °F - 55.0 °F 63% 29.86 in 10.0 mi SW 9.2 mph - N/A   Clear
9:53 PM 64.0 °F - 53.1 °F 67% 29.89 in 10.0 mi WSW 6.9 mph - N/A   Clear
10:53 PM 63.0 °F - 52.0 °F 67% 29.90 in 10.0 mi WSW 8.1 mph - N/A   Clear
11:53 PM 60.1 °F - 52.0 °F 75% 29.91 in 10.0 mi WSW 6.9 mph - N/A   Clear